TimeCST,TemperatureF,Dew PointF,Humidity,Sea Level PressureIn,VisibilityMPH,Wind Direction,Wind SpeedMPH,Gust SpeedMPH,PrecipitationIn,Events,Conditions,WindDirDegrees,DateUTC
12:15 AM,22.8,19.6,87,30.04,5.0,North,20.7,-,N/A,,Overcast,360,2013-12-14 06:15:00
12:35 AM,22.8,19.9,89,30.05,5.0,North,18.4,24.2,N/A,,Overcast,360,2013-12-14 06:35:00
12:55 AM,22.8,20.3,90,30.05,5.0,North,19.6,24.2,N/A,,Overcast,360,2013-12-14 06:55:00
1:15 AM,22.6,20.1,90,30.06,5.0,North,23.0,-,N/A,,Overcast,360,2013-12-14 07:15:00
1:35 AM,22.3,19.8,90,30.06,5.0,North,19.6,24.2,N/A,,Overcast,360,2013-12-14 07:35:00
1:55 AM,21.9,19.4,90,30.07,5.0,North,20.7,-,N/A,,Overcast,360,2013-12-14 07:55:00
2:15 AM,21.7,19.4,91,30.08,4.0,North,21.9,25.3,N/A,,Overcast,360,2013-12-14 08:15:00
2:35 AM,21.6,19.2,91,30.08,5.0,North,17.3,21.9,N/A,,Overcast,360,2013-12-14 08:35:00
2:55 AM,21.7,18.9,89,30.09,5.0,North,19.6,-,N/A,,Overcast,360,2013-12-14 08:55:00
3:15 AM,21.2,18.5,89,30.10,5.0,North,21.9,-,N/A,,Overcast,350,2013-12-14 09:15:00
3:35 AM,20.8,18.0,89,30.10,5.0,North,19.6,-,N/A,,Overcast,350,2013-12-14 09:35:00
3:55 AM,20.3,17.6,89,30.11,5.0,North,21.9,26.5,N/A,,Overcast,360,2013-12-14 09:55:00
4:15 AM,19.9,16.9,88,30.12,5.0,North,15.0,18.4,N/A,,Overcast,360,2013-12-14 10:15:00
4:35 AM,19.9,16.5,87,30.12,5.0,North,19.6,-,N/A,,Overcast,350,2013-12-14 10:35:00
4:55 AM,19.2,15.6,86,30.12,7.0,North,20.7,25.3,N/A,,Overcast,350,2013-12-14 10:55:00
5:15 AM,18.9,14.9,85,30.13,7.0,North,18.4,25.3,N/A,,Overcast,360,2013-12-14 11:15:00
5:35 AM,18.5,14.5,85,30.14,7.0,North,16.1,-,N/A,,Overcast,350,2013-12-14 11:35:00
5:55 AM,18.0,14.0,84,30.15,10.0,North,18.4,24.2,N/A,,Overcast,360,2013-12-14 11:55:00
6:15 AM,18.0,14.0,84,30.16,7.0,North,19.6,-,N/A,,Overcast,350,2013-12-14 12:15:00
6:35 AM,17.6,13.6,84,30.16,10.0,North,16.1,-,N/A,,Overcast,350,2013-12-14 12:35:00
6:55 AM,17.6,13.1,83,30.16,10.0,North,15.0,-,N/A,,Overcast,350,2013-12-14 12:55:00
7:15 AM,17.2,12.9,83,30.17,10.0,North,11.5,-,N/A,,Mostly Cloudy,350,2013-12-14 13:15:00
7:35 AM,16.3,12.2,84,30.18,10.0,NNW,9.2,-,N/A,,Scattered Clouds,340,2013-12-14 13:35:00
7:55 AM,15.8,11.8,84,30.18,10.0,NNW,10.4,-,N/A,,Clear,330,2013-12-14 13:55:00
8:15 AM,15.3,11.3,84,30.19,10.0,NNW,10.4,-,N/A,,Clear,340,2013-12-14 14:15:00
8:35 AM,15.6,11.3,83,30.20,10.0,NNW,8.1,-,N/A,,Clear,330,2013-12-14 14:35:00
8:55 AM,16.3,11.5,81,30.21,10.0,NNW,11.5,-,N/A,,Clear,340,2013-12-14 14:55:00
9:15 AM,17.2,11.8,79,30.22,10.0,North,12.7,-,N/A,,Clear,350,2013-12-14 15:15:00
9:35 AM,17.6,11.8,78,30.23,10.0,NNW,15.0,-,N/A,,Clear,340,2013-12-14 15:35:00
9:55 AM,18.3,12.0,76,30.24,10.0,NNW,13.8,-,N/A,,Clear,340,2013-12-14 15:55:00
10:15 AM,18.9,12.4,76,30.24,10.0,NNW,15.0,-,N/A,,Scattered Clouds,340,2013-12-14 16:15:00
10:35 AM,19.6,12.4,74,30.22,10.0,NNW,12.7,-,N/A,,Scattered Clouds,340,2013-12-14 16:35:00
10:55 AM,20.1,12.4,72,30.22,10.0,NNW,10.4,-,N/A,,Clear,340,2013-12-14 16:55:00
11:15 AM,21.0,12.7,70,30.22,10.0,NNW,15.0,-,N/A,,Clear,330,2013-12-14 17:15:00
11:35 AM,21.2,13.3,72,30.21,10.0,NW,12.7,-,N/A,,Mostly Cloudy,320,2013-12-14 17:35:00
11:55 AM,21.0,13.5,73,30.21,10.0,NW,11.5,-,N/A,,Overcast,320,2013-12-14 17:55:00
12:15 PM,22.6,14.7,72,30.20,10.0,NW,11.5,-,N/A,,Mostly Cloudy,320,2013-12-14 18:15:00
12:35 PM,22.6,15.4,74,30.19,10.0,NW,15.0,-,N/A,,Overcast,320,2013-12-14 18:35:00
12:55 PM,23.0,16.2,75,30.19,10.0,NW,12.7,-,N/A,,Overcast,320,2013-12-14 18:55:00
1:15 PM,23.5,16.5,75,30.19,10.0,NNW,12.7,-,N/A,,Overcast,330,2013-12-14 19:15:00
1:35 PM,23.5,16.5,75,30.18,10.0,NNW,16.1,19.6,N/A,,Overcast,330,2013-12-14 19:35:00
1:55 PM,24.1,16.9,74,30.18,10.0,NNW,15.0,-,N/A,,Overcast,330,2013-12-14 19:55:00
2:15 PM,23.7,16.7,75,30.18,10.0,NNW,13.8,-,N/A,,Overcast,330,2013-12-14 20:15:00
2:35 PM,23.7,16.5,74,30.18,10.0,NNW,11.5,-,N/A,,Overcast,330,2013-12-14 20:35:00
2:55 PM,24.1,16.0,71,30.18,10.0,NNW,10.4,-,N/A,,Mostly Cloudy,330,2013-12-14 20:55:00
3:15 PM,24.6,16.3,71,30.18,10.0,NW,10.4,16.1,N/A,,Scattered Clouds,320,2013-12-14 21:15:00
3:35 PM,25.0,16.9,71,30.19,10.0,NNW,11.5,17.3,N/A,,Scattered Clouds,330,2013-12-14 21:35:00
3:55 PM,24.3,16.7,73,30.20,10.0,NW,11.5,-,N/A,,Clear,320,2013-12-14 21:55:00
4:15 PM,23.7,16.7,75,30.19,10.0,NNW,10.4,-,N/A,,Clear,330,2013-12-14 22:15:00
4:35 PM,22.8,16.3,76,30.20,10.0,NNW,8.1,-,N/A,,Clear,330,2013-12-14 22:35:00
4:55 PM,21.2,15.6,79,30.21,10.0,NW,6.9,-,N/A,,Clear,320,2013-12-14 22:55:00
5:15 PM,19.2,14.5,82,30.20,10.0,NW,5.8,-,N/A,,Clear,310,2013-12-14 23:15:00
5:35 PM,17.1,13.1,84,30.20,10.0,Calm,Calm,-,N/A,,Clear,0,2013-12-14 23:35:00
5:55 PM,16.9,12.6,83,30.19,10.0,Calm,Calm,-,N/A,,Clear,0,2013-12-14 23:55:00
6:15 PM,18.0,12.9,81,30.18,10.0,Calm,Calm,-,N/A,,Clear,0,2013-12-15 00:15:00
6:35 PM,16.9,12.7,84,30.19,10.0,Calm,Calm,-,N/A,,Clear,0,2013-12-15 00:35:00
6:55 PM,14.2,10.2,84,30.19,10.0,Calm,Calm,-,N/A,,Clear,0,2013-12-15 00:55:00
7:15 PM,15.6,10.9,82,30.18,10.0,Calm,Calm,-,N/A,,Clear,0,2013-12-15 01:15:00
7:35 PM,15.4,11.7,85,30.18,10.0,Calm,Calm,-,N/A,,Clear,0,2013-12-15 01:35:00
7:55 PM,15.4,12.7,89,30.19,10.0,Calm,Calm,-,N/A,,Clear,0,2013-12-15 01:55:00
8:15 PM,14.9,11.7,87,30.19,10.0,Calm,Calm,-,N/A,,Clear,0,2013-12-15 02:15:00
8:35 PM,15.1,11.8,87,30.18,10.0,Calm,Calm,-,N/A,,Clear,0,2013-12-15 02:35:00
8:55 PM,14.0,11.3,89,30.18,10.0,Calm,Calm,-,N/A,,Clear,0,2013-12-15 02:55:00
9:15 PM,12.6,8.8,85,30.18,10.0,Calm,Calm,-,N/A,,Clear,0,2013-12-15 03:15:00
9:35 PM,12.6,9.0,85,30.18,10.0,SSW,4.6,-,N/A,,Clear,200,2013-12-15 03:35:00
9:55 PM,12.6,9.7,88,30.18,10.0,Calm,Calm,-,N/A,,Clear,0,2013-12-15 03:55:00
10:15 PM,13.1,9.7,86,30.18,10.0,Calm,Calm,-,N/A,,Clear,0,2013-12-15 04:15:00
10:35 PM,14.0,10.6,86,30.18,10.0,Calm,Calm,-,N/A,,Clear,0,2013-12-15 04:35:00
10:55 PM,12.2,8.2,84,30.18,10.0,Calm,Calm,-,N/A,,Clear,0,2013-12-15 04:55:00
11:15 PM,14.0,11.5,90,30.17,10.0,Calm,Calm,-,N/A,,Mostly Cloudy,0,2013-12-15 05:15:00
11:35 PM,14.9,12.7,91,30.17,10.0,SSW,3.5,-,N/A,,Overcast,200,2013-12-15 05:35:00
11:55 PM,15.8,13.6,91,30.16,7.0,SSW,5.8,-,N/A,,Overcast,210,2013-12-15 05:55:00